Time,TemperatureF,DewpointF,PressureIn,WindDirection,WindDirectionDegrees,WindSpeedMPH,WindSpeedGustMPH,Humidity,HourlyPrecipIn,Conditions,Clouds,dailyrainin,SoftwareType,DateUTC
2013-02-28 00:01:00,34.0,33.0,29.53,South,182,0.0,0.0,96,0.00,,,1.13,,2013-02-28 05:01:00,
2013-02-28 00:11:00,34.0,33.0,29.53,South,182,0.0,0.0,96,0.00,,,1.13,,2013-02-28 05:11:00,
2013-02-28 00:22:00,34.0,33.0,29.53,South,182,0.0,0.0,96,0.00,,,1.13,,2013-02-28 05:22:00,
2013-02-28 00:32:00,34.0,33.0,29.52,South,182,0.0,0.0,96,0.00,,,1.13,,2013-02-28 05:32:00,
2013-02-28 00:42:00,34.0,33.0,29.52,South,182,0.0,0.0,96,0.00,,,1.13,,2013-02-28 05:42:00,
2013-02-28 00:52:00,34.0,33.0,29.52,South,182,0.0,1.0,96,0.00,,,1.13,,2013-02-28 05:52:00,
2013-02-28 01:01:00,34.0,33.0,29.52,South,182,1.0,2.0,97,0.00,,,1.13,,2013-02-28 06:01:00,
2013-02-28 01:11:00,34.0,33.0,29.52,South,182,1.0,2.0,97,0.00,,,1.13,,2013-02-28 06:11:00,
2013-02-28 01:22:00,34.0,33.0,29.52,South,182,0.0,0.0,97,0.00,,,1.13,,2013-02-28 06:22:00,
2013-02-28 01:32:00,35.0,34.0,29.52,South,182,0.0,2.0,97,0.00,,,1.13,,2013-02-28 06:32:00,
2013-02-28 01:42:00,35.0,34.0,29.52,South,182,0.0,2.0,97,0.00,,,1.13,,2013-02-28 06:42:00,
2013-02-28 01:52:00,35.0,34.0,29.51,South,182,1.0,2.0,97,0.00,,,1.13,,2013-02-28 06:52:00,
2013-02-28 02:01:00,35.0,34.0,29.51,South,182,1.0,2.0,97,0.00,,,1.09,,2013-02-28 07:01:00,
2013-02-28 02:11:00,35.0,34.0,29.51,South,182,1.0,2.0,97,0.00,,,1.09,,2013-02-28 07:11:00,
2013-02-28 02:21:00,35.0,34.0,29.50,South,182,0.0,2.0,97,0.00,,,1.09,,2013-02-28 07:21:00,
2013-02-28 02:32:00,34.0,33.0,29.49,South,182,0.0,0.0,97,0.00,,,1.09,,2013-02-28 07:32:00,
2013-02-28 02:42:00,34.0,33.0,29.49,South,182,0.0,0.0,97,0.00,,,1.09,,2013-02-28 07:42:00,
2013-02-28 02:52:00,34.0,33.0,29.49,South,182,0.0,1.0,97,0.00,,,1.09,,2013-02-28 07:52:00,
2013-02-28 03:01:00,34.0,33.0,29.49,South,182,0.0,0.0,97,0.00,,,1.00,,2013-02-28 08:01:00,
2013-02-28 03:11:00,34.0,33.0,29.49,South,182,0.0,0.0,97,0.00,,,1.00,,2013-02-28 08:11:00,
2013-02-28 03:22:00,34.0,33.0,29.49,South,182,0.0,0.0,97,0.00,,,1.00,,2013-02-28 08:22:00,
2013-02-28 03:32:00,34.0,33.0,29.49,South,182,0.0,0.0,97,0.00,,,1.00,,2013-02-28 08:32:00,
2013-02-28 03:42:00,34.0,33.0,29.49,South,182,0.0,0.0,97,0.00,,,1.00,,2013-02-28 08:42:00,
2013-02-28 03:53:00,34.0,33.0,29.49,South,182,0.0,0.0,97,0.00,,,1.00,,2013-02-28 08:53:00,
2013-02-28 04:03:00,34.0,33.0,29.49,South,182,0.0,0.0,97,0.00,,,0.87,,2013-02-28 09:03:00,
2013-02-28 04:12:00,34.0,33.0,29.49,South,182,0.0,0.0,97,0.00,,,0.87,,2013-02-28 09:12:00,
2013-02-28 04:22:00,34.0,33.0,29.49,South,182,0.0,0.0,97,0.00,,,0.87,,2013-02-28 09:22:00,
2013-02-28 04:32:00,34.0,33.0,29.49,South,182,0.0,0.0,97,0.00,,,0.87,,2013-02-28 09:32:00,
2013-02-28 04:42:00,34.0,33.0,29.49,South,182,0.0,0.0,97,0.00,,,0.87,,2013-02-28 09:42:00,
2013-02-28 04:52:00,34.0,33.0,29.49,South,182,0.0,2.0,97,0.00,,,0.87,,2013-02-28 09:52:00,
2013-02-28 05:02:00,34.0,33.0,29.50,South,182,0.0,2.0,97,0.00,,,0.77,,2013-02-28 10:02:00,
2013-02-28 05:11:00,34.0,33.0,29.50,South,182,1.0,3.0,97,0.00,,,0.77,,2013-02-28 10:11:00,
2013-02-28 05:22:00,34.0,33.0,29.50,South,182,1.0,3.0,97,0.00,,,0.77,,2013-02-28 10:22:00,
2013-02-28 05:32:00,34.0,33.0,29.50,South,182,0.0,2.0,97,0.00,,,0.77,,2013-02-28 10:32:00,
2013-02-28 05:42:00,34.0,33.0,29.50,South,182,0.0,2.0,97,0.00,,,0.77,,2013-02-28 10:42:00,
2013-02-28 05:52:00,34.0,33.0,29.51,South,182,0.0,0.0,97,0.00,,,0.77,,2013-02-28 10:52:00,
2013-02-28 06:01:00,34.0,33.0,29.51,South,182,0.0,2.0,97,0.01,,,0.70,,2013-02-28 11:01:00,
2013-02-28 06:11:00,34.0,33.0,29.51,South,182,0.0,2.0,97,0.01,,,0.70,,2013-02-28 11:11:00,
2013-02-28 06:22:00,34.0,33.0,29.51,South,182,0.0,0.0,97,0.01,,,0.70,,2013-02-28 11:22:00,
2013-02-28 06:32:00,34.0,33.0,29.51,South,182,0.0,0.0,97,0.01,,,0.70,,2013-02-28 11:32:00,
2013-02-28 06:42:00,34.0,33.0,29.51,South,182,0.0,0.0,97,0.01,,,0.70,,2013-02-28 11:42:00,
2013-02-28 06:52:00,34.0,33.0,29.50,South,182,0.0,0.0,97,0.01,,,0.70,,2013-02-28 11:52:00,
2013-02-28 07:02:00,34.0,33.0,29.51,South,182,0.0,2.0,97,0.00,,,0.66,,2013-02-28 12:02:00,
2013-02-28 07:11:00,34.0,33.0,29.51,South,182,0.0,2.0,97,0.00,,,0.66,,2013-02-28 12:11:00,
2013-02-28 07:22:00,34.0,33.0,29.51,South,182,0.0,0.0,97,0.00,,,0.66,,2013-02-28 12:22:00,
2013-02-28 07:32:00,34.0,33.0,29.52,South,182,0.0,0.0,97,0.00,,,0.66,,2013-02-28 12:32:00,
2013-02-28 07:42:00,34.0,33.0,29.52,South,182,0.0,0.0,97,0.00,,,0.66,,2013-02-28 12:42:00,
2013-02-28 07:52:00,34.0,33.0,29.52,South,182,0.0,2.0,97,0.00,,,0.66,,2013-02-28 12:52:00,
2013-02-28 08:02:00,34.0,33.0,29.52,South,182,0.0,1.0,97,0.00,,,0.63,,2013-02-28 13:02:00,
2013-02-28 08:11:00,34.0,33.0,29.52,South,182,0.0,0.0,97,0.00,,,0.63,,2013-02-28 13:11:00,
2013-02-28 08:22:00,34.0,33.0,29.52,South,182,0.0,0.0,97,0.00,,,0.63,,2013-02-28 13:22:00,
2013-02-28 08:32:00,34.0,33.0,29.52,South,182,0.0,0.0,97,0.00,,,0.63,,2013-02-28 13:32:00,
2013-02-28 08:42:00,34.0,33.0,29.52,South,182,0.0,0.0,97,0.00,,,0.63,,2013-02-28 13:42:00,
2013-02-28 08:52:00,35.0,34.0,29.52,South,182,0.0,0.0,97,0.00,,,0.63,,2013-02-28 13:52:00,
2013-02-28 09:01:00,35.0,34.0,29.52,South,182,0.0,0.0,97,0.00,,,0.59,,2013-02-28 14:01:00,
2013-02-28 09:11:00,35.0,34.0,29.53,South,182,0.0,0.0,98,0.00,,,0.59,,2013-02-28 14:11:00,
2013-02-28 09:22:00,35.0,34.0,29.53,South,182,0.0,0.0,98,0.00,,,0.59,,2013-02-28 14:22:00,
2013-02-28 09:32:00,36.0,35.0,29.53,South,182,0.0,0.0,98,0.00,,,0.59,,2013-02-28 14:32:00,
2013-02-28 09:42:00,36.0,35.0,29.53,South,182,0.0,0.0,97,0.00,,,0.59,,2013-02-28 14:42:00,
2013-02-28 09:52:00,36.0,35.0,29.53,South,182,0.0,0.0,97,0.00,,,0.59,,2013-02-28 14:52:00,
2013-02-28 10:02:00,37.0,36.0,29.53,South,182,0.0,0.0,98,0.00,,,0.47,,2013-02-28 15:02:00,
2013-02-28 10:11:00,36.0,35.0,29.53,South,182,0.0,0.0,98,0.00,,,0.47,,2013-02-28 15:11:00,
2013-02-28 10:22:00,36.0,35.0,29.53,South,182,0.0,0.0,98,0.00,,,0.47,,2013-02-28 15:22:00,
2013-02-28 10:32:00,37.0,36.0,29.53,South,182,0.0,0.0,98,0.00,,,0.47,,2013-02-28 15:32:00,
2013-02-28 10:42:00,37.0,36.0,29.53,South,182,0.0,0.0,98,0.00,,,0.47,,2013-02-28 15:42:00,
2013-02-28 10:52:00,37.0,36.0,29.53,South,182,0.0,0.0,97,0.00,,,0.47,,2013-02-28 15:52:00,
2013-02-28 11:02:00,37.0,36.0,29.53,South,182,0.0,0.0,98,0.00,,,0.44,,2013-02-28 16:02:00,
2013-02-28 11:12:00,37.0,36.0,29.52,South,182,0.0,0.0,98,0.00,,,0.44,,2013-02-28 16:12:00,
2013-02-28 11:22:00,37.0,36.0,29.52,South,182,0.0,0.0,98,0.00,,,0.44,,2013-02-28 16:22:00,
2013-02-28 11:32:00,37.0,36.0,29.52,South,182,0.0,0.0,97,0.00,,,0.44,,2013-02-28 16:32:00,
2013-02-28 11:42:00,37.0,36.0,29.52,South,182,0.0,0.0,97,0.00,,,0.44,,2013-02-28 16:42:00,
2013-02-28 11:52:00,37.0,36.0,29.52,South,182,0.0,0.0,97,0.00,,,0.44,,2013-02-28 16:52:00,
2013-02-28 12:02:00,37.0,36.0,29.52,South,182,0.0,0.0,97,0.00,,,0.39,,2013-02-28 17:02:00,
2013-02-28 12:12:00,38.0,37.0,29.52,South,182,0.0,0.0,97,0.00,,,0.39,,2013-02-28 17:12:00,
2013-02-28 12:22:00,38.0,37.0,29.52,South,182,0.0,0.0,97,0.00,,,0.39,,2013-02-28 17:22:00,
2013-02-28 12:32:00,38.0,37.0,29.52,South,182,0.0,1.0,96,0.00,,,0.39,,2013-02-28 17:32:00,
2013-02-28 12:42:00,38.0,37.0,29.52,South,182,0.0,1.0,96,0.00,,,0.39,,2013-02-28 17:42:00,
2013-02-28 12:53:00,38.0,37.0,29.50,South,182,1.0,2.0,96,0.00,,,0.39,,2013-02-28 17:53:00,
2013-02-28 13:02:00,39.0,38.0,29.50,South,182,0.0,2.0,96,0.00,,,0.35,,2013-02-28 18:02:00,
2013-02-28 13:11:00,39.0,38.0,29.49,South,182,0.0,2.0,95,0.00,,,0.35,,2013-02-28 18:11:00,
2013-02-28 13:22:00,39.0,38.0,29.49,South,182,0.0,2.0,95,0.00,,,0.35,,2013-02-28 18:22:00,
2013-02-28 13:32:00,39.0,37.0,29.49,South,182,0.0,3.0,93,0.00,,,0.35,,2013-02-28 18:32:00,
2013-02-28 13:42:00,40.0,38.0,29.49,South,182,0.0,0.0,92,0.00,,,0.35,,2013-02-28 18:42:00,
2013-02-28 13:52:00,40.0,38.0,29.49,South,182,0.0,0.0,92,0.00,,,0.35,,2013-02-28 18:52:00,
2013-02-28 14:02:00,40.0,37.0,29.49,South,182,0.0,3.0,90,0.00,,,0.25,,2013-02-28 19:02:00,
2013-02-28 14:11:00,40.0,37.0,29.49,South,182,0.0,1.0,88,0.00,,,0.25,,2013-02-28 19:11:00,
2013-02-28 14:22:00,40.0,37.0,29.49,South,182,0.0,1.0,88,0.00,,,0.25,,2013-02-28 19:22:00,
2013-02-28 14:32:00,41.0,37.0,29.49,South,182,0.0,0.0,87,0.00,,,0.25,,2013-02-28 19:32:00,
2013-02-28 14:42:00,41.0,37.0,29.49,South,182,0.0,0.0,87,0.00,,,0.25,,2013-02-28 19:42:00,
2013-02-28 14:52:00,41.0,37.0,29.49,South,182,0.0,2.0,86,0.00,,,0.25,,2013-02-28 19:52:00,
2013-02-28 15:01:00,40.0,36.0,29.49,South,182,0.0,1.0,87,0.00,,,0.17,,2013-02-28 20:01:00,
2013-02-28 15:12:00,40.0,36.0,29.49,South,182,0.0,0.0,87,0.00,,,0.17,,2013-02-28 20:12:00,
2013-02-28 15:22:00,40.0,36.0,29.49,South,182,0.0,0.0,87,0.00,,,0.17,,2013-02-28 20:22:00,
2013-02-28 15:32:00,40.0,37.0,29.49,South,182,0.0,0.0,88,0.01,,,0.18,,2013-02-28 20:32:00,
2013-02-28 15:42:00,40.0,37.0,29.49,South,182,0.0,0.0,88,0.01,,,0.18,,2013-02-28 20:42:00,
2013-02-28 15:52:00,39.0,36.0,29.49,South,182,0.0,2.0,89,0.01,,,0.18,,2013-02-28 20:52:00,
2013-02-28 16:02:00,38.0,36.0,29.49,South,182,0.0,1.0,91,0.01,,,0.16,,2013-02-28 21:02:00,
2013-02-28 16:11:00,38.0,36.0,29.49,South,182,0.0,1.0,91,0.01,,,0.16,,2013-02-28 21:11:00,
2013-02-28 16:22:00,39.0,37.0,29.49,South,182,0.0,0.0,92,0.01,,,0.16,,2013-02-28 21:22:00,
2013-02-28 16:32:00,39.0,37.0,29.49,South,182,0.0,0.0,92,0.00,,,0.16,,2013-02-28 21:32:00,
2013-02-28 16:42:00,39.0,37.0,29.49,South,182,0.0,0.0,92,0.00,,,0.16,,2013-02-28 21:42:00,
2013-02-28 16:52:00,39.0,37.0,29.49,South,182,0.0,0.0,93,0.00,,,0.16,,2013-02-28 21:52:00,
2013-02-28 17:01:00,39.0,37.0,29.49,South,182,0.0,0.0,93,0.00,,,0.16,,2013-02-28 22:01:00,
2013-02-28 17:11:00,38.0,36.0,29.49,South,182,0.0,0.0,94,0.00,,,0.16,,2013-02-28 22:11:00,
2013-02-28 17:22:00,38.0,36.0,29.49,South,182,0.0,0.0,94,0.00,,,0.16,,2013-02-28 22:22:00,
2013-02-28 17:32:00,38.0,36.0,29.49,South,182,0.0,1.0,94,0.00,,,0.16,,2013-02-28 22:32:00,
2013-02-28 17:42:00,38.0,36.0,29.49,South,182,0.0,1.0,94,0.00,,,0.16,,2013-02-28 22:42:00,
2013-02-28 17:52:00,38.0,36.0,29.50,South,186,0.0,0.0,94,0.00,,,0.16,,2013-02-28 22:52:00,
2013-02-28 18:01:00,37.0,35.0,29.50,South,190,0.0,2.0,94,0.00,,,0.10,,2013-02-28 23:01:00,
2013-02-28 18:11:00,37.0,36.0,29.50,South,190,0.0,1.0,95,0.00,,,0.10,,2013-02-28 23:11:00,
2013-02-28 18:22:00,37.0,36.0,29.50,South,190,0.0,1.0,95,0.00,,,0.10,,2013-02-28 23:22:00,
2013-02-28 18:32:00,36.0,35.0,29.51,South,190,0.0,0.0,95,0.00,,,0.10,,2013-02-28 23:32:00,
2013-02-28 18:42:00,36.0,35.0,29.51,South,190,0.0,0.0,95,0.00,,,0.10,,2013-02-28 23:42:00,
2013-02-28 18:53:00,36.0,35.0,29.51,South,190,0.0,1.0,95,0.00,,,0.10,,2013-02-28 23:53:00,
2013-02-28 19:02:00,37.0,35.0,29.52,West,264,3.0,10.0,94,0.00,,,0.07,,2013-03-01 00:02:00,
2013-02-28 19:11:00,37.0,35.0,29.52,West,264,3.0,10.0,94,0.00,,,0.07,,2013-03-01 00:11:00,
2013-02-28 19:22:00,37.0,35.0,29.52,West,261,7.0,13.0,92,0.00,,,0.07,,2013-03-01 00:22:00,
2013-02-28 19:32:00,36.0,33.0,29.52,WNW,295,2.0,10.0,90,0.00,,,0.07,,2013-03-01 00:32:00,
2013-02-28 19:42:00,36.0,33.0,29.52,WNW,295,2.0,10.0,90,0.00,,,0.07,,2013-03-01 00:42:00,
2013-02-28 19:52:00,36.0,33.0,29.52,WNW,292,0.0,5.0,90,0.00,,,0.07,,2013-03-01 00:52:00,
2013-02-28 20:01:00,36.0,34.0,29.52,WNW,294,1.0,3.0,91,0.00,,,0.05,,2013-03-01 01:01:00,
2013-02-28 20:11:00,35.0,33.0,29.52,WNW,294,1.0,3.0,92,0.00,,,0.05,,2013-03-01 01:11:00,
2013-02-28 20:21:00,35.0,33.0,29.52,WNW,294,1.0,3.0,92,0.00,,,0.05,,2013-03-01 01:21:00,
2013-02-28 20:32:00,36.0,33.0,29.52,West,281,3.0,6.0,90,0.00,,,0.05,,2013-03-01 01:32:00,
2013-02-28 20:42:00,36.0,33.0,29.52,West,281,3.0,6.0,90,0.00,,,0.05,,2013-03-01 01:42:00,
2013-02-28 20:52:00,36.0,33.0,29.52,West,265,0.0,4.0,89,0.00,,,0.05,,2013-03-01 01:52:00,
2013-02-28 21:01:00,36.0,33.0,29.52,NNW,334,1.0,3.0,88,0.00,,,0.04,,2013-03-01 02:01:00,
2013-02-28 21:11:00,35.0,32.0,29.52,West,271,1.0,10.0,90,0.00,,,0.04,,2013-03-01 02:11:00,
2013-02-28 21:21:00,35.0,32.0,29.52,West,271,1.0,10.0,90,0.00,,,0.04,,2013-03-01 02:21:00,
2013-02-28 21:32:00,36.0,33.0,29.52,West,265,2.0,13.0,88,0.00,,,0.04,,2013-03-01 02:32:00,
2013-02-28 21:42:00,36.0,33.0,29.52,West,265,2.0,13.0,88,0.00,,,0.04,,2013-03-01 02:42:00,
2013-02-28 21:52:00,36.0,33.0,29.52,West,259,7.0,18.0,87,0.00,,,0.04,,2013-03-01 02:52:00,
2013-02-28 22:02:00,36.0,33.0,29.52,West,277,11.0,17.0,87,0.00,,,0.03,,2013-03-01 03:02:00,
2013-02-28 22:11:00,36.0,33.0,29.52,West,273,6.0,17.0,87,0.00,,,0.03,,2013-03-01 03:11:00,
2013-02-28 22:21:00,36.0,33.0,29.52,West,273,6.0,17.0,87,0.00,,,0.03,,2013-03-01 03:21:00,
2013-02-28 22:32:00,36.0,32.0,29.52,WNW,284,6.0,17.0,86,0.00,,,0.03,,2013-03-01 03:32:00,
2013-02-28 22:42:00,36.0,32.0,29.52,WNW,284,6.0,17.0,86,0.00,,,0.03,,2013-03-01 03:42:00,
2013-02-28 22:52:00,36.0,32.0,29.52,West,271,6.0,15.0,86,0.00,,,0.03,,2013-03-01 03:52:00,
2013-02-28 23:01:00,36.0,32.0,29.52,WSW,241,8.0,17.0,86,0.00,,,0.02,,2013-03-01 04:01:00,
2013-02-28 23:11:00,36.0,32.0,29.52,WSW,241,8.0,17.0,86,0.00,,,0.02,,2013-03-01 04:11:00,
2013-02-28 23:21:00,36.0,33.0,29.52,West,279,6.0,19.0,87,0.00,,,0.02,,2013-03-01 04:21:00,
2013-02-28 23:32:00,36.0,33.0,29.52,West,276,6.0,17.0,87,0.00,,,0.02,,2013-03-01 04:32:00,
2013-02-28 23:42:00,36.0,33.0,29.52,West,276,6.0,17.0,87,0.00,,,0.02,,2013-03-01 04:42:00,
2013-02-28 23:52:00,36.0,33.0,29.53,WNW,294,6.0,16.0,87,0.00,,,0.02,,2013-03-01 04:52:00,